Date,TemperatureHighF,TemperatureAvgF,TemperatureLowF,DewpointHighF,DewpointAvgF,DewpointLowF,HumidityHigh,HumidityAvg,HumidityLow,PressureMaxIn,PressureMinIn,WindSpeedMaxMPH,WindSpeedAvgMPH,GustSpeedMaxMPH,PrecipitationSumIn
2013-3-1,38,22,-38,38,22,-40,99,99,99,30.06,29.91,9,4,9,0.01
2013-3-2,41,22,5,36,21,5,99,96,72,30.09,30.01,13,3,13,0.01
2013-3-3,51,24,3,36,17,2,99,78,39,30.03,29.91,6,1,6,0.00
2013-3-4,51,33,24,44,31,22,99,95,72,29.93,29.75,21,8,21,0.01
2013-3-5,33,31,27,33,31,26,99,99,99,29.92,29.68,17,4,17,0.00
2013-3-6,33,28,24,32,27,23,99,99,99,30.19,29.92,16,6,16,0.00
2013-3-7,64,35,23,45,30,23,99,87,46,30.26,30.17,10,2,10,0.01
2013-3-8,60,38,19,47,34,19,99,88,60,30.28,30.08,18,5,18,0.00
2013-3-9,51,42,36,51,42,36,99,99,93,30.09,29.63,24,9,24,0.15
2013-3-10,59,49,42,58,48,40,99,99,99,29.68,29.41,22,5,22,0.34
2013-3-11,47,36,30,46,36,30,99,99,99,29.75,29.47,17,4,17,0.01
2013-3-12,45,32,25,42,31,24,99,99,89,29.95,29.75,24,4,24,0.00
2013-3-13,40,31,22,28,25,22,99,80,56,30.21,30.18,14,4,14,0.00
2013-3-14,57,35,19,44,32,19,99,90,59,30.20,29.92,17,4,17,0.00
2013-3-15,61,43,31,53,42,31,99,94,68,29.92,29.53,11,3,14,0.00
2013-3-16,43,36,30,43,36,30,99,99,97,29.96,29.50,14,4,14,0.00
2013-3-17,43,33,28,40,32,28,99,96,84,30.01,29.76,17,6,17,0.01
2013-3-18,41,33,26,41,32,23,99,98,92,29.76,29.54,20,7,20,0.00
2013-3-19,34,32,32,33,32,31,99,99,99,29.83,29.62,16,9,16,0.00
2013-3-20,41,33,25,41,32,23,99,98,91,29.81,29.55,19,7,19,0.01
2013-3-21,33,31,27,33,31,26,99,99,99,29.91,29.69,14,5,14,0.00
2013-3-22,33,28,24,33,27,23,99,99,99,30.20,29.91,14,6,14,0.00
2013-3-23,67,41,25,44,32,25,99,76,40,30.22,29.83,13,4,13,0.00
2013-3-24,34,31,29,34,31,29,99,99,94,29.86,29.51,13,4,13,0.00
2013-3-25,42,32,27,40,31,27,99,99,92,30.00,29.62,16,4,16,0.01
2013-3-26,42,35,30,38,33,30,99,94,77,30.16,29.99,12,4,12,0.01
2013-3-27,54,37,24,39,31,24,99,81,50,30.23,30.16,11,2,11,0.00
2013-3-28,68,42,21,48,35,21,99,78,43,30.24,30.13,13,2,13,0.00
2013-3-29,73,50,32,50,40,32,99,75,39,30.17,30.07,12,2,12,0.00
2013-3-30,65,48,32,55,44,32,99,90,70,30.09,29.75,18,5,18,0.00
2013-3-31,63,51,38,57,45,34,99,84,49,29.83,29.67,22,7,22,0.00